Regional Weather Roundup
Issued by NWS Pendleton, OR

Home | Current Version | Previous Version | Text Only | Print | Product List | Glossary On
Versions: 1 2 3 4 5 6 7 8 9 10 11 12 13 14 15 16 17 18 19 20 21 22 23 24 25 26 27 28 29 30 31 32 33 34 35 36 37 38 39 40 41 42 43 44 45 46 47 48 49 50
000
ASUS46 KPDT 302004
RWRPDT
PENDLETON REGIONAL WEATHER ROUNDUP
NATIONAL WEATHER SERVICE PENDLETON OREGON
100 PM PDT WED JUL 30 2014

NOTE: FAIR INDICATES FEW OR NO CLOUDS BELOW 12,000 FEET WITH NO
SIGNIFICANT WEATHER AND/OR OBSTRUCTIONS TO VISIBILITY.

# INDICATES UNOFFICIAL STATION AND DATA

WAZ520-302110-
EAST SLOPES OF WASHINGTON CASCADES

CITY            SKY/WX      TMP DP  RH  WIND    PRES   REMARKS
#BULLFROG       N/A         82  50  33  W13     N/A
#CLE ELUM HS    N/A         83  46  27  W8      30.02S
#CLE ELUM LAKE  N/A         84  47  28  SW1     29.93S
#CLIFFDEL 2NW   N/A         86  33  15  W6      N/A
#EASTON DOT     N/A         80  40  24  N7      N/A
#ELK HTS DOT    N/A         85  85  100 W5      N/A
#GLENWOOD       N/A         87  60  40  S3      29.94F
#MANASTASH CYN  N/A         86  46  25  NW3     30.06F
#NELSON 3SW     N/A         82  48  31  CALM    30.15S
#NILE           N/A         90  28  11  W5      29.22F HX 86
#PEOH POINT     N/A         78  46  32  SW6     N/A
#RONALD 2NW     N/A         82  50  33  W2      29.99S
#SOUTH BLEWITT  N/A         86  49  28  CALM    N/A
#TROUT LAKE 1NE N/A         85  59  41  SE7     29.94F
$$

WAZ521-302110-
SIMCOE HIGHLANDS

CITY            SKY/WX      TMP DP  RH  WIND    PRES   REMARKS
#BICKLETON HS   N/A         90  31  12  SW7     30.12F HX 86
#SATUS PASS DOT N/A         88  43  21  CALM    N/A
#CENTERVILLE 1SWN/A         91  44  20  W8      29.90F HX 87
#GOLDENDALE 1NE N/A         89  43  20  S1      N/A
#GOLDENDALE 1S  N/A         92  54  28  NW7     30.01F HX 90
#GOLDENDALE 5WNWN/A         89  52  28  SW7     29.92F
#GOODNOE HILLS  N/A         95  51  23  W15     29.94F HX 92
#LYLE 6NE       N/A         82  57  43  SW5     29.93F
$$

WAZ026-302110-
KITTITAS VALLEY

CITY            SKY/WX      TMP DP  RH  WIND    PRES   REMARKS
ELLENSBURG AP   SUNNY       97  42  15  NW10    30.03F HX 93
#ELLENSBURG CWU N/A         93  50  23  N6      29.87F HX 90
#ELLENSBURG 3NE N/A         90  48  24  W5      30.02F HX 87
#ELLENSBURG 1E  N/A         93  42  17  CALM    N/A    HX 89
#KITTITAS 3S    N/A         85  59  41  SW5     29.91F
#ROCKY CYN DOT  N/A         91  57  32  NW16    N/A    HX 90
#RYEGRASS DOT   N/A         85  52  32  W13     N/A
#THORP 6N       N/A         86  44  23  SW10    29.95S
$$

WAZ027-302110-
YAKIMA VALLEY

CITY            SKY/WX      TMP DP  RH  WIND    PRES   REMARKS
YAKIMA AIRPORT  SUNNY       97  39  14  CALM    29.99F HX 92
YAKIMA-VAGABOND SUNNY       95  35  12  NW7     30.01F HX 90
#COWICHE 1N     N/A         88  50  27  S1      30.13S
#DONALD 2NE     N/A         102 38  11  E1      30.31S HX 97
#GRANDVIEW      N/A         91  50  25  CALM    29.93F HX 88
#MABTON         N/A         89  62  41  N3      29.96F
#MOXEE 2E       N/A         93   1   3  W5      29.87F HX 89
#NACHES 2SW     N/A         93  55  28  S2      30.04F HX 91
#PARKER DOT     N/A         94  47  20  S2      N/A    HX 90
#SELAH 8E       N/A         94  29  10  W6      N/A    HX 89
#TERRACE HTS    N/A         98  47  18  NW1     29.87F HX 94
#TOPPENISH      N/A         92  49  23  CALM    29.84F HX 89
#I82 S UMTANUM RN/A         93  50  23  S5      N/A    HX 90
#UNION GAP DOT  N/A         93  38  15  N1      N/A    HX 89
#WAPATO 4NE     N/A         102 38  11  E1      30.31S HX 97
#WEST VALLEY    N/A         92  45  20  CALM    29.89F HX 88
#W YAKIMA       N/A         94  41  16  SE2     29.91F HX 90
#WHITE SWAN 5E  N/A         90  59  35  NE3     29.92F HX 89
#WILEY CITY 3W  N/A         91  39  16  CALM    30.00F HX 87
#ZILLAH DOT     N/A         90  49  25  S5      N/A    HX 87
$$

WAZ028-302110-
LOWER COLUMBIA BASIN...WASHINGTON

CITY            SKY/WX      TMP DP  RH  WIND    PRES   REMARKS
PASCO           SUNNY       97  53  23  VRB5    29.95F HX 95
PROSSER AWOS    N/A         93  57  30  SW2     29.99F HX 92
RICHLAND AWOS   SUNNY       97  48  19  E7      29.94F HX 94
#BASIN CITY 5SW N/A         94  65  39  CALM    29.96F HX 97
#BENTON CITY    N/A         93  60  33  W5      29.82F HX 93
#CONNELL 5N     N/A         95  54  25  S1      29.92F HX 93
#CONNELL 5NW    N/A         91  59  34  CALM    29.88F HX 90
#ELTOPIA 6NW    N/A         89  59  37  S3      28.96F
#KENNEWICK 3S   N/A         93  63  37  CALM    29.92F HX 94
#PASCO-BROADMOORN/A         99  51  20  NE2     29.80F HX 96
#PATERSON       N/A         92  53  27  S3      29.91F HX 90
#PROSSER DOT    N/A         94  41  16  W5      N/A    HX 90
#PROSSER        N/A         95  45  18  NW3     29.91F HX 91
#SAGEMOOR 2W    N/A         92  57  31  CALM    29.78F HX 91
#TOUCHET 2S     N/A         98  55  24  N3      29.90F HX 96
#WEST PASCO     N/A         97  60  30  SE1     29.94F HX 97
$$

WAZ029-302110-
FOOTHILLS OF THE BLUES...WASHINGTON

CITY            SKY/WX      TMP DP  RH  WIND    PRES   REMARKS
WALLA WALLA AP  SUNNY       98  47  18  SW8     30.01F HX 94
#COLLEGE PLACE  N/A         99  49  19  W6      29.96F HX 96
#DAYTON SCHOOL  N/A         93  47  21  SW7     30.01F HX 89
#DELANEY DOT    N/A         98  41  14  W6      N/A    HX 93
#LOWDEN 2SE     N/A         96  57  27  CALM    29.92F HX 95
#PLEASANT VIEW 1N/A         95  46  19  S7      29.94F HX 91
#PRESCOTT       N/A         97  53  23  SW1     29.90F HX 95
#SUDBURY        N/A         97  N/A N/A CALM    N/A
#WHITMAN COLLEGEN/A         94  50  23  S3      29.96F HX 91
#WAITSBURG 8N   N/A         96  39  14  S7      29.88S HX 91
#WALLA WALLA 5E N/A         99  53  22  SW6     N/A    HX 97
#WALLA WALLA U  N/A         96  53  24  CALM    29.91F HX 94
#WHITMAN MISSIONN/A         95  56  27  CALM    29.93F HX 93
$$

WAZ030-302110-
BLUE MOUNTAINS...WASHINGTON

CITY            SKY/WX      TMP DP  RH  WIND    PRES   REMARKS
$$

ORZ009-041-WAZ024-302110-
COLUMBIA RIVER GORGE

CITY            SKY/WX      TMP DP  RH  WIND    PRES   REMARKS
HOOD RIVER AP   SUNNY       88  55  33  NW10    30.01F
THE DALLES AP   SUNNY       90  53  28  N22G29  29.96F HX 88
#ARLINGTON AIRPON/A         95  49  21  W15     N/A    HX 92
#ARLINGTON HS   N/A         97  48  19  CALM    29.82F HX 94
#CELILO DOT     N/A         97  60  30  N3      N/A    HX 97
#MARYHILL       N/A         92  46  21  SW6     N/A    HX 88
#MOSIER 1S      N/A         85  49  29  NW8     30.06F
#MURDOCK        N/A         86  58  39  W15     29.97F
#RUFUS DOT      N/A         91  58  33  W17     N/A    HX 90

$$

ORZ510-302110-
NORTH CENTRAL OREGON

CITY            SKY/WX      TMP DP  RH  WIND    PRES   REMARKS
#CHENOWITH 1W   N/A         81  50  34  W16     N/A
#COW CYN RST AREN/A         87  39  18  SW7     N/A
#DUFUR 9E       N/A         86  48  27  NW7     29.97F
#GRASS VALLEY 1SN/A         92  44  19  E1      29.96F HX 88
#KENT DOT       N/A         89  42  19  CALM    N/A
#MAUPIN SCHOOL  N/A         96  50  21  N2      30.02F HX 93
#MORO SCHOOL    N/A         90  49  25  W9      30.06F HX 87
#SHANIKO 5WSW   N/A         86  42  21  W7      N/A
#SHANIKO 4NW    N/A         85  39  20  NW6     30.18S
#TYGH VALLEY 2NEN/A         94  49  22  CALM    29.93F HX 91
#WAPANITIA AIRPON/A         92  45  20  NW3     29.93F HX 88
#WASCO DOT      N/A         94  54  26  W9      N/A    HX 92
#WASCO 5NE      N/A         94  44  18  SW6     29.93F HX 90
$$

ORZ511-302110-
CENTRAL OREGON

CITY            SKY/WX      TMP DP  RH  WIND    PRES   REMARKS
BEND AIRPORT    PTCLDY      86  43  22  CALM    30.16F
MADRAS AIRPORT  PTCLDY      90  43  20  CALM    30.12F HX 86
REDMOND AIRPORT PTCLDY      90  42  19  VRB5    30.13F HX 86
#BEND 6E        N/A         86  45  24  CALM    29.85F
#BEND 1SW       N/A         86  47  26  E1      N/A
#BEND-AWBREY    N/A         85  48  28  CALM    29.94F
#BEND-KIM LN    N/A         90  50  26  N1      30.14F HX 87
#CULVER         N/A         87  47  25  W1      30.08F
#CULVER 1E      N/A         89  45  22  CALM    30.13F
#LAKE BILLY CHINN/A         86   8   5  NW5     30.11F
#POWELL BUTTE 3EN/A         85  50  30  W5      N/A
#POWELL BUTTE   N/A         90  53  28  NE6     29.79F HX 88
#PRINEVILLE 3N  N/A         87  53  31  CALM    29.91F


ORZ509-302110-
EAST SLOPES OF OREGON CASCADES

CITY            SKY/WX      TMP DP  RH  WIND    PRES   REMARKS
#BLUE BOX PASS  N/A         82  23  11  CALM    N/A
#BLACK BUTTE RNCN/A         90  56  32  S1      29.97F HX 88
#CAMP SHERMAN   N/A         90  54  30  CALM    29.99F HX 88
#LA PINE DOT    N/A         91  37  15  CALM    N/A    HX 87
#LA PINE 4NW    N/A         87  46  24  CALM    29.98F
#LAVA BUTTE DOT N/A         88  52  29  SW2     N/A
#MT BACHELOR-LOWN/A         N/A N/A N/A MISG    N/A
#MT BACHELOR-MIDN/A         67  39  36  SE2     N/A
#SISTERS AIRPOR N/A         87  54  32  CALM    30.13F
#SISTERS ODOT   N/A         87  N/A N/A NW2     N/A
#SISTERS 3N     N/A         85  48  28  CALM    N/A
#SUNRIVER       N/A         88  47  24  SW2     29.87F
#SUNRIVER AP    N/A         86  46  25  CALM    29.95F
#SUTTLE LK DOT  N/A         82  56  41  W8      N/A
#TUMALO 3W      N/A         86  46  25  E1      29.83F
#WANOGA BUTTE D N/A         77  38  24  SW7     N/A

$$

ORZ044-302110-
LOWER COLUMBIA BASIN...OREGON

CITY            SKY/WX      TMP DP  RH  WIND    PRES   REMARKS
HERMISTON       SUNNY       97  50  21  W8      29.96F HX 94
#BOARDMAN SCHOOLN/A         94  55  27  CALM    29.92F HX 92
#BOARDMAN 3W    N/A         95  64  36  SE2     29.65F HX 97
#BOARDMAN 8SW   N/A         96  51  22  W6      29.92F HX 93
#IONE SCHOOL    N/A         95  42  16  W6      29.98F HX 91
#IRRIGON 4NW    N/A         91  55  30  NW6     N/A    HX 89
#UMATILLA SCHOOLN/A         98  69  39  W5      29.98F HX 104
#UMATILLA       N/A         94  57  29  CALM    29.93F HX 93
$$

ORZ507-302110-
NORTHERN FOOTHILLS OF THE BLUES

CITY            SKY/WX      TMP DP  RH  WIND    PRES   REMARKS
PENDLETON AIRPT SUNNY       96  45  18  N8      30.01F HX 92
#ADAMS 3WNW     N/A         96  46  18  W2      29.90F HX 92
#ATHENA         N/A         94  47  20  W2      29.93F HX 90
#HELIX SCHOOL   N/A         93  46  20  CALM    29.91F HX 89
#HELIX 3N       N/A         93  43  18  S3      30.01F HX 89
#HOLDMAN 5SE    N/A         95  50  22  SW3     30.01F HX 92
#HOLDMAN 6E     N/A         94  47  20  NE3     29.74F HX 90
#M-F FERNDALE   N/A         99  58  26  CALM    29.98S HX 99
#M-FREEWATER 5SEN/A         94  58  30  W2      30.00F HX 93
#PDT AQUATIC CTRN/A         95  50  22  W3      29.92F HX 92
#PENDLETON 5NE  N/A         97  53  23  CALM    29.96F HX 95
#PDT SUNRIDGE   N/A         97  48  19  NW2     30.00F HX 94
#PENDLETON 7NW  N/A         92  60  34  CALM    27.76S HX 92
#PILOT ROCK     N/A         94  49  22  N2      30.04F HX 91
#TUTUILLA       N/A         97  49  20  N5      29.86F HX 94
#UMAPINE 2E     N/A         96  60  30  CALM    29.94F HX 96
#WESTON SCHOOL  N/A         93  42  17  N1      30.01F HX 89

$$

ORZ508-302110-
SOUTHERN FOOTHILLS OF THE BLUES

CITY            SKY/WX      TMP DP  RH  WIND    PRES   REMARKS
#AJAX           N/A         91  33  13  N6      29.99F HX 87
#CONDON SCHOOL  N/A         92  42  18  N3      30.06F HX 88
#CONDON 5W      N/A         88  36  16  NW7     30.11F
#FOSSIL SCHOOL  N/A         90  45  21  W6      30.06F HX 86
#HEPPNER 4NE    N/A         92  42  18  W2      29.90F HX 88
#LEXINGTON 2SE  N/A         97  45  17  CALM    29.98F HX 93
#MIKKALO        N/A         93  38  15  N2      30.06S HX 89
#OLEX 4N        N/A         94  39  15  W2      29.98F HX 90
#RUGGS 5NE      N/A         94   8   4  N7      30.27F HX 89
#RUGGS 2SW      N/A         93  42  17  N3      29.94F HX 89

$$

ORZ502-503-302110-
BLUE MOUNTAINS

CITY            SKY/WX      TMP DP  RH  WIND    PRES   REMARKS
MEACHAM         SUNNY       89  44  21  VRB5    30.17F
#BATTLE MTN DOT N/A         87  56  35  N3      N/A
#HARDMAN 10S    N/A         87  40  19  E3      30.23F
#LADD CYN SMT   N/A         89  46  23  NW8     N/A
#LADD CREEK ODOTN/A         90  56  32  NE7     N/A    HX 88
#LONG CREEK HS  N/A         88  43  21  SW5     30.09F
#N POWDER DOT   N/A         93  57  30  N2      N/A    HX 92
#PIKES PEAK     N/A         84  46  27  W6      27.99S
#TOLLGATE 9W    N/A         85  46  26  W3      N/A
#TROY SCHOOL    N/A         92  55  29  SE1     29.78F HX 90
#UKIAH          N/A         91  46  21  S3      29.93F HX 87
#WESTON 4E      N/A         90  43  20  NW2     29.85F HX 86
$$

ORZ505-302110-
JOHN DAY BASIN

CITY            SKY/WX      TMP DP  RH  WIND    PRES   REMARKS
JOHN DAY        PTCLDY      94  36  13  N9      30.14F HX 89
#MONUMENT HS    N/A         76  43  31  SW1     29.79F
#MT. VERNON 5SE N/A         90  39  17  W5      30.12F HX 86
#WINLOCK        N/A         96  41  15  CALM    30.19F HX 92
$$

ORZ506-302110-
OCHOCO AND JOHN DAY HIGHLANDS

CITY            SKY/WX      TMP DP  RH  WIND    PRES   REMARKS
#BUCK CREEK DOT N/A         90  47  23  NW5     N/A    HX 87
#HORSE RIDGE DO N/A         87  38  18  NW12    N/A
#KEYES SMT DOT  N/A         86  39  19  CALM    N/A
#PINE MTN OBS   N/A         76  35  22  SW2     N/A
#PRAIRIE CITY   N/A         91  39  16  SW1     29.86F HX 87
#SENECA 9NW     N/A         87  38  18  CALM    29.92F
$$

ORZ049-302110-
GRANDE RONDE VALLEY

CITY            SKY/WX      TMP DP  RH  WIND    PRES   REMARKS
LA GRANDE       SUNNY       93  46  20  N6      30.09F HX 89
#COVE           N/A         92  53  27  N5      30.01F HX 90
#COVE SCHOOL    N/A         93  47  21  CALM    30.08F HX 89
#COVE 6NW       N/A         91  47  22  NW6     29.96F HX 88
#ELGIN 3N       N/A         92  46  21  S5      29.82F HX 88
#ELGIN 1E       N/A         92  50  24  NW3     N/A    HX 89
#IMBLER SCHOOL  N/A         91  52  27  CALM    30.05F HX 88
#ISLAND CITY 4N N/A         95  60  31  NE2     29.86F HX 95
#LADD CYN DOT   N/A         93  55  28  NW6     N/A    HX 91
#UNION 1S       N/A         92  49  23  NW5     29.83F HX 89
$$

ORZ050-302110-
WALLOWA COUNTY

CITY            SKY/WX      TMP DP  RH  WIND    PRES   REMARKS
#ENTERPRISE AP  N/A         87  35  16  SW6     30.11F
#ENTERPRISE HS  N/A         90  46  22  CALM    30.15F HX 87
#IMNAHA SCHOOL  N/A         94  36  13  CALM    29.99F HX 89
#IMNAHA 10S     N/A         93  42  17  NE2     30.09F HX 89
#JOSEPH 3N      N/A         85  47  27  CALM    30.19F
#JOSEPH 3W      N/A         86  30  13  E5      30.06F
#LOSTINE        N/A         91  47  22  CALM    29.74F HX 88
#MT HOWARD 8000 N/A         67  36  32  NW2     30.52S
#PROMISE 1S     N/A         85  51  31  W1      30.03S
#SHEEP RDG 7000 N/A         71  37  29  CALM    29.92F
#WALLOWA SCHOOL N/A         91  43  19  CALM    30.81F HX 87



$$



USA.gov is the U.S. government's official web portal to all federal, state and local government web resources and services.